| time (UTC) | temp F | wind direction | speed knots | gust knots | rain 1hr in | rain 24hr in | rain mn in | humidity % | barometer mb |
| 20260505115003 | 66 | 132 | 0.9 | 3.5 | 0.00 | 0.00 | 0.00 | 89 | 1015.1 |
| 20260505114502 | 66 | 132 | 0.9 | 3.5 | 0.00 | 0.00 | 0.00 | 89 | 1014.9 |
| 20260505114002 | 66 | 140 | 0.9 | 3.5 | 0.00 | 0.00 | 0.00 | 89 | 1014.7 |
| 20260505113605 | 66 | 122 | 0.0 | 2.6 | 0.00 | 0.00 | 0.00 | 88 | 1014.6 |
| 20260505113100 | 65 | 124 | 0.0 | 2.6 | 0.00 | 0.00 | 0.00 | 88 | 1014.7 |
| 20260505112559 | 65 | 136 | 0.0 | 1.7 | 0.00 | 0.00 | 0.00 | 88 | 1014.5 |
| 20260505112059 | 65 | 136 | 0.0 | 1.7 | 0.00 | 0.00 | 0.00 | 88 | 1014.5 |
| 20260505111602 | 65 | 136 | 0.0 | 0.9 | 0.00 | 0.00 | 0.00 | 88 | 1014.5 |
| 20260505111057 | 65 | 136 | 0.0 | 1.7 | 0.00 | 0.00 | 0.00 | 88 | 1014.5 |
| 20260505110557 | 65 | 136 | 0.0 | 0.9 | 0.00 | 0.00 | 0.00 | 88 | 1014.3 |
| 20260505102053 | 66 | 134 | 0.0 | 2.6 | 0.00 | 0.00 | 0.00 | 87 | 1014.1 |
| 20260505101553 | 66 | 134 | 0.0 | 2.6 | 0.00 | 0.00 | 0.00 | 86 | 1014.0 |
| 20260505101056 | 66 | 140 | 0.0 | 2.6 | 0.00 | 0.00 | 0.00 | 86 | 1014.0 |
| 20260505100554 | 66 | 126 | 0.0 | 0.9 | 0.00 | 0.00 | 0.00 | 86 | 1014.1 |
| 20260505100100 | 66 | 113 | 0.0 | 0.9 | 0.00 | 0.00 | 0.00 | 86 | 1014.0 |
| 20260505095552 | 66 | 113 | 0.0 | 0.9 | 0.00 | 0.00 | 0.00 | 85 | 1013.9 |
| 20260505095054 | 66 | 113 | 0.0 | 0.0 | 0.00 | 0.00 | 0.00 | 85 | 1013.9 |
| 20260505094552 | 66 | 113 | 0.0 | 0.0 | 0.00 | 0.00 | 0.00 | 85 | 1013.9 |
| 20260505094051 | 66 | 113 | 0.0 | 0.0 | 0.00 | 0.00 | 0.00 | 85 | 1013.9 |
| 20260505093555 | 66 | 113 | 0.0 | 0.0 | 0.00 | 0.00 | 0.00 | 85 | 1013.9 |
| 20260505093052 | 66 | 113 | 0.0 | 0.0 | 0.00 | 0.00 | 0.00 | 86 | 1013.8 |
| 20260505092554 | 67 | 113 | 0.0 | 0.9 | 0.00 | 0.00 | 0.00 | 86 | 1013.7 |
| 20260505092052 | 67 | 113 | 0.0 | 1.7 | 0.00 | 0.00 | 0.00 | 86 | 1013.7 |
| 20260505091550 | 67 | 113 | 0.0 | 1.7 | 0.00 | 0.00 | 0.00 | 86 | 1013.7 |
| 20260505091049 | 67 | 113 | 0.0 | 1.7 | 0.00 | 0.00 | 0.00 | 86 | 1013.7 |
| 20260505090549 | 67 | 113 | 0.0 | 2.6 | 0.00 | 0.00 | 0.00 | 86 | 1013.6 |
| 20260505090105 | 67 | 109 | 0.9 | 3.5 | 0.00 | 0.00 | 0.00 | 85 | 1013.6 |
| 20260505085549 | 67 | 121 | 0.9 | 3.5 | 0.00 | 0.00 | 0.00 | 85 | 1013.6 |
| 20260505085051 | 67 | 123 | 0.0 | 1.7 | 0.00 | 0.00 | 0.00 | 85 | 1013.6 |
| 20260505084548 | 67 | 129 | 0.0 | 1.7 | 0.00 | 0.00 | 0.00 | 85 | 1013.6 |
| 20260505084048 | 67 | 113 | 0.0 | 1.7 | 0.00 | 0.00 | 0.00 | 85 | 1013.6 |
| 20260505083548 | 67 | 114 | 0.0 | 2.6 | 0.00 | 0.00 | 0.00 | 84 | 1013.6 |
| 20260505083047 | 67 | 114 | 0.0 | 2.6 | 0.00 | 0.00 | 0.00 | 85 | 1013.6 |
| 20260505082548 | 67 | 130 | 0.0 | 2.6 | 0.00 | 0.00 | 0.00 | 84 | 1013.6 |
| 20260505082046 | 67 | 144 | 0.0 | 2.6 | 0.00 | 0.00 | 0.00 | 84 | 1013.6 |
| 20260505081549 | 67 | 138 | 0.0 | 1.7 | 0.00 | 0.00 | 0.00 | 84 | 1013.7 |
| 20260505081046 | 68 | 138 | 0.0 | 1.7 | 0.00 | 0.00 | 0.00 | 84 | 1013.6 |
| 20260505080546 | 68 | 146 | 0.0 | 1.7 | 0.00 | 0.00 | 0.00 | 83 | 1013.5 |
| 20260505080052 | 68 | 146 | 0.0 | 2.6 | 0.00 | 0.00 | 0.00 | 83 | 1013.7 |
| 20260505075544 | 68 | 142 | 0.0 | 2.6 | 0.00 | 0.00 | 0.00 | 83 | 1013.6 |
| 20260505075043 | 68 | 125 | 0.0 | 1.7 | 0.00 | 0.00 | 0.00 | 83 | 1013.9 |
| 20260505074543 | 68 | 124 | 0.0 | 0.9 | 0.00 | 0.00 | 0.00 | 83 | 1013.9 |
| 20260505074046 | 68 | 124 | 0.0 | 1.7 | 0.00 | 0.00 | 0.00 | 83 | 1013.9 |
| 20260505073546 | 68 | 124 | 0.0 | 1.7 | 0.00 | 0.00 | 0.00 | 83 | 1014.0 |
| 20260505073053 | 68 | 122 | 0.0 | 1.7 | 0.00 | 0.00 | 0.00 | 83 | 1013.9 |
| 20260505072545 | 68 | 122 | 0.0 | 2.6 | 0.00 | 0.00 | 0.00 | 83 | 1014.1 |
| 20260505072041 | 68 | 122 | 0.0 | 2.6 | 0.00 | 0.00 | 0.00 | 83 | 1014.0 |
| 20260505071541 | 68 | 111 | 0.0 | 1.7 | 0.00 | 0.00 | 0.00 | 83 | 1014.0 |
| 20260505071040 | 69 | 105 | 0.0 | 2.6 | 0.00 | 0.00 | 0.00 | 83 | 1013.9 |
| 20260505070543 | 69 | 141 | 0.0 | 4.3 | 0.00 | 0.00 | 0.00 | 83 | 1013.9 |
| 20260505070049 | 69 | 125 | 0.0 | 3.5 | 0.00 | 0.00 | 0.00 | 82 | 1013.9 |
| 20260505065539 | 69 | 149 | 0.0 | 1.7 | 0.00 | 0.00 | 0.00 | 82 | 1013.9 |
| 20260505065038 | 69 | 169 | 0.0 | 4.3 | 0.00 | 0.00 | 0.00 | 82 | 1014.1 |
| 20260505064538 | 69 | 140 | 0.0 | 4.3 | 0.00 | 0.00 | 0.00 | 82 | 1014.0 |
| 20260505064038 | 69 | 146 | 0.0 | 3.5 | 0.00 | 0.00 | 0.00 | 82 | 1014.1 |
| 20260505063537 | 69 | 132 | 0.0 | 3.5 | 0.00 | 0.00 | 0.00 | 82 | 1014.0 |
| 20260505063037 | 69 | 150 | 0.0 | 1.7 | 0.00 | 0.00 | 0.00 | 82 | 1014.3 |
| 20260505062536 | 69 | 150 | 0.0 | 1.7 | 0.00 | 0.00 | 0.00 | 82 | 1014.5 |
| 20260505062033 | 69 | 150 | 0.0 | 2.6 | 0.00 | 0.00 | 0.00 | 82 | 1014.4 |
| 20260505061533 | 69 | 156 | 0.0 | 2.6 | 0.00 | 0.00 | 0.00 | 82 | 1014.7 |
| 20260505061033 | 69 | 126 | 0.0 | 1.7 | 0.00 | 0.00 | 0.00 | 82 | 1014.7 |
| 20260505060532 | 69 | 126 | 0.0 | 1.7 | 0.00 | 0.00 | 0.00 | 82 | 1014.7 |
| 20260505060035 | 69 | 126 | 0.0 | 2.6 | 0.00 | 0.00 | 0.00 | 82 | 1014.7 |
| 20260505055533 | 69 | 126 | 0.0 | 2.6 | 0.00 | 0.00 | 0.00 | 82 | 1014.8 |
| 20260505055032 | 69 | 121 | 0.0 | 1.7 | 0.00 | 0.00 | 0.00 | 82 | 1014.6 |
| 20260505054533 | 69 | 139 | 0.0 | 1.7 | 0.00 | 0.00 | 0.00 | 81 | 1014.7 |
| 20260505054030 | 70 | 139 | 0.0 | 1.7 | 0.00 | 0.00 | 0.00 | 81 | 1014.6 |
| 20260505053531 | 70 | 139 | 0.0 | 1.7 | 0.00 | 0.00 | 0.00 | 81 | 1014.7 |
| 20260505053029 | 70 | 139 | 0.0 | 1.7 | 0.00 | 0.00 | 0.00 | 81 | 1014.9 |
| 20260505052532 | 70 | 97 | 0.0 | 2.6 | 0.00 | 0.00 | 0.00 | 81 | 1014.9 |
| 20260505052029 | 70 | 94 | 0.9 | 2.6 | 0.00 | 0.00 | 0.00 | 81 | 1014.8 |
| 20260505051528 | 70 | 148 | 0.0 | 1.7 | 0.00 | 0.00 | 0.00 | 80 | 1014.8 |
| 20260505051028 | 70 | 153 | 0.0 | 2.6 | 0.00 | 0.00 | 0.00 | 80 | 1014.8 |
| 20260505050531 | 70 | 153 | 0.0 | 2.6 | 0.00 | 0.00 | 0.00 | 80 | 1014.9 |
| 20260505041538 | 71 | 142 | 0.0 | 3.5 | 0.00 | 0.00 | 0.00 | 79 | 1015.2 |
| 20260505041020 | 72 | 105 | 0.9 | 2.6 | 0.00 | 0.00 | 0.00 | 78 | 1015.1 |
| 20260505040520 | 72 | 103 | 0.0 | 2.6 | 0.00 | 0.00 | 0.00 | 78 | 1015.3 |
| 20260505040019 | 72 | 128 | 0.0 | 1.7 | 0.00 | 0.00 | 0.00 | 78 | 1015.2 |
| 20260505035518 | 72 | 128 | 0.0 | 3.5 | 0.00 | 0.00 | 0.00 | 77 | 1015.3 |
| 20260505035018 | 72 | 116 | 0.0 | 2.6 | 0.00 | 0.00 | 0.00 | 77 | 1015.3 |
| 20260505034518 | 72 | 123 | 0.9 | 2.6 | 0.00 | 0.00 | 0.00 | 77 | 1015.3 |
| 20260505034022 | 72 | 120 | 0.0 | 2.6 | 0.00 | 0.00 | 0.00 | 77 | 1015.3 |
| 20260505033518 | 72 | 98 | 0.0 | 3.5 | 0.00 | 0.00 | 0.00 | 77 | 1015.3 |
| 20260505033018 | 73 | 120 | 0.9 | 3.5 | 0.00 | 0.00 | 0.00 | 76 | 1015.2 |
| 20260505032521 | 73 | 119 | 0.0 | 2.6 | 0.00 | 0.00 | 0.00 | 76 | 1015.3 |
| 20260505032019 | 73 | 116 | 0.0 | 2.6 | 0.00 | 0.00 | 0.00 | 76 | 1015.2 |
| 20260505031518 | 73 | 136 | 0.0 | 3.5 | 0.00 | 0.00 | 0.00 | 76 | 1015.4 |
| 20260505031017 | 73 | 141 | 0.0 | 3.5 | 0.00 | 0.00 | 0.00 | 76 | 1015.4 |
| 20260505030517 | 73 | 129 | 0.9 | 3.5 | 0.00 | 0.00 | 0.00 | 76 | 1015.4 |
| 20260505030017 | 74 | 125 | 0.0 | 1.7 | 0.00 | 0.00 | 0.00 | 76 | 1015.4 |
| 20260505025517 | 74 | 133 | 0.0 | 3.5 | 0.00 | 0.00 | 0.00 | 75 | 1015.6 |
| 20260505025018 | 74 | 148 | 0.9 | 3.5 | 0.00 | 0.00 | 0.00 | 75 | 1015.3 |
| 20260505024521 | 74 | 132 | 0.0 | 6.1 | 0.00 | 0.00 | 0.00 | 75 | 1015.2 |
| 20260505024017 | 74 | 141 | 0.0 | 6.1 | 0.00 | 0.00 | 0.00 | 75 | 1015.1 |
| 20260505023516 | 74 | 126 | 1.7 | 7.0 | 0.00 | 0.00 | 0.00 | 74 | 1015.1 |
| 20260505023017 | 74 | 109 | 1.7 | 7.0 | 0.00 | 0.00 | 0.00 | 74 | 1015.0 |
| 20260505022516 | 75 | 121 | 1.7 | 4.3 | 0.00 | 0.00 | 0.00 | 74 | 1015.1 |
| 20260505022017 | 75 | 124 | 1.7 | 4.3 | 0.00 | 0.00 | 0.00 | 74 | 1015.1 |
| 20260505021516 | 75 | 142 | 0.9 | 5.2 | 0.00 | 0.00 | 0.00 | 73 | 1015.1 |
| 20260505021015 | 75 | 133 | 1.7 | 4.3 | 0.00 | 0.00 | 0.00 | 73 | 1015.1 |
| 20260505020515 | 75 | 137 | 0.9 | 4.3 | 0.00 | 0.00 | 0.00 | 73 | 1015.1 |
| 20260505020018 | 75 | 134 | 0.9 | 3.5 | 0.00 | 0.00 | 0.00 | 72 | 1015.0 |
| 20260505015517 | 75 | 107 | 0.9 | 6.1 | 0.00 | 0.00 | 0.00 | 72 | 1015.0 |
| 20260505015015 | 75 | 107 | 1.7 | 6.1 | 0.00 | 0.00 | 0.00 | 72 | 1014.9 |
| 20260505014516 | 76 | 130 | 0.9 | 7.0 | 0.00 | 0.00 | 0.00 | 72 | 1014.9 |
| 20260505014014 | 76 | 128 | 2.6 | 7.0 | 0.00 | 0.00 | 0.00 | 72 | 1014.8 |
| 20260505013517 | 76 | 129 | 1.7 | 6.1 | 0.00 | 0.00 | 0.00 | 72 | 1014.7 |
| 20260505013019 | 76 | 122 | 1.7 | 7.0 | 0.00 | 0.00 | 0.00 | 71 | 1014.6 |
| 20260505012515 | 76 | 125 | 0.9 | 7.0 | 0.00 | 0.00 | 0.00 | 71 | 1014.6 |
| 20260505012014 | 76 | 87 | 3.5 | 7.8 | 0.00 | 0.00 | 0.00 | 71 | 1014.6 |
| 20260505011521 | 76 | 132 | 3.5 | 7.8 | 0.00 | 0.00 | 0.00 | 70 | 1014.7 |
| 20260505011016 | 77 | 63 | 2.6 | 7.8 | 0.00 | 0.00 | 0.00 | 70 | 1014.4 |
| 20260505010513 | 77 | 132 | 2.6 | 7.0 | 0.00 | 0.00 | 0.00 | 70 | 1014.3 |
| 20260505010014 | 77 | 138 | 3.5 | 7.8 | 0.00 | 0.00 | 0.00 | 69 | 1014.4 |
| 20260505005513 | 77 | 126 | 1.7 | 8.7 | 0.00 | 0.00 | 0.00 | 69 | 1014.4 |
| 20260505005013 | 77 | 87 | 2.6 | 8.7 | 0.00 | 0.00 | 0.00 | 69 | 1014.4 |
| 20260505004522 | 78 | 131 | 1.7 | 7.0 | 0.00 | 0.00 | 0.00 | 68 | 1014.4 |
| 20260505004012 | 78 | 105 | 1.7 | 9.6 | 0.00 | 0.00 | 0.00 | 68 | 1014.2 |
| 20260505003512 | 77 | 140 | 3.5 | 9.6 | 0.00 | 0.00 | 0.00 | 68 | 1014.0 |
| 20260505003012 | 78 | 108 | 1.7 | 6.1 | 0.00 | 0.00 | 0.00 | 68 | 1014.0 |
| 20260505002513 | 79 | 157 | 1.7 | 7.8 | 0.00 | 0.00 | 0.00 | 67 | 1014.1 |
| 20260505002011 | 79 | 144 | 0.9 | 7.8 | 0.00 | 0.00 | 0.00 | 66 | 1014.1 |
| 20260505001511 | 79 | 126 | 1.7 | 8.7 | 0.00 | 0.00 | 0.00 | 65 | 1013.9 |
| 20260505001010 | 80 | 127 | 1.7 | 8.7 | 0.00 | 0.00 | 0.00 | 65 | 1013.7 |
| 20260505000509 | 80 | 129 | 0.9 | 7.8 | 0.00 | 0.00 | 0.00 | 65 | 1013.5 |
| 20260505000015 | 80 | 151 | 1.7 | 7.8 | 0.00 | 0.00 | 0.00 | 64 | 1013.4 |
| 20260504235509 | 80 | 155 | 1.7 | 8.7 | 0.00 | 0.00 | 0.00 | 64 | 1013.3 |
| 20260504235008 | 80 | 138 | 1.7 | 8.7 | 0.00 | 0.00 | 0.00 | 64 | 1013.4 |
| 20260504234508 | 80 | 129 | 2.6 | 4.3 | 0.00 | 0.00 | 0.00 | 63 | 1013.3 |
| 20260504234008 | 81 | 143 | 1.7 | 7.0 | 0.00 | 0.00 | 0.00 | 63 | 1013.2 |
| 20260504233508 | 81 | 146 | 2.6 | 8.7 | 0.00 | 0.00 | 0.00 | 62 | 1013.1 |
| 20260504233007 | 81 | 100 | 4.3 | 8.7 | 0.00 | 0.00 | 0.00 | 61 | 1013.0 |
| 20260504232508 | 81 | 154 | 1.7 | 7.0 | 0.00 | 0.00 | 0.00 | 61 | 1013.1 |
| 20260504232007 | 82 | 118 | 1.7 | 7.0 | 0.00 | 0.00 | 0.00 | 61 | 1012.9 |
| 20260504231506 | 82 | 146 | 1.7 | 7.0 | 0.00 | 0.00 | 0.00 | 60 | 1013.0 |
| 20260504231007 | 82 | 122 | 0.0 | 6.1 | 0.00 | 0.00 | 0.00 | 61 | 1013.0 |
| 20260504230507 | 82 | 127 | 1.7 | 7.8 | 0.00 | 0.00 | 0.00 | 59 | 1012.9 |
| 20260504230012 | 82 | 132 | 3.5 | 7.8 | 0.00 | 0.00 | 0.00 | 59 | 1012.8 |
| 20260504225508 | 83 | 127 | 1.7 | 7.8 | 0.00 | 0.00 | 0.00 | 58 | 1012.8 |
| 20260504225006 | 83 | 126 | 2.6 | 9.6 | 0.00 | 0.00 | 0.00 | 58 | 1012.7 |
| 20260504224505 | 83 | 98 | 0.9 | 8.7 | 0.00 | 0.00 | 0.00 | 58 | 1012.8 |
| 20260504224005 | 83 | 172 | 2.6 | 8.7 | 0.00 | 0.00 | 0.00 | 57 | 1012.9 |
| 20260504223505 | 84 | 185 | 3.5 | 9.6 | 0.00 | 0.00 | 0.00 | 56 | 1013.1 |
| 20260504223005 | 84 | 159 | 3.5 | 10.4 | 0.00 | 0.00 | 0.00 | 56 | 1013.0 |
| 20260504222505 | 85 | 123 | 3.5 | 10.4 | 0.00 | 0.00 | 0.00 | 56 | 1012.8 |
| 20260504222007 | 84 | 132 | 1.7 | 6.1 | 0.00 | 0.00 | 0.00 | 56 | 1012.9 |
| 20260504221505 | 85 | 142 | 0.9 | 4.3 | 0.00 | 0.00 | 0.00 | 55 | 1013.0 |
| 20260504221003 | 85 | 147 | 0.9 | 7.8 | 0.00 | 0.00 | 0.00 | 56 | 1012.9 |
| 20260504220503 | 84 | 164 | 0.9 | 5.2 | 0.00 | 0.00 | 0.00 | 56 | 1012.9 |
| 20260504220004 | 85 | 26 | 0.9 | 7.0 | 0.00 | 0.00 | 0.00 | 55 | 1013.0 |
| 20260504215503 | 85 | 88 | 2.6 | 7.0 | 0.00 | 0.00 | 0.00 | 54 | 1013.0 |
| 20260504215006 | 85 | 121 | 1.7 | 7.0 | 0.00 | 0.00 | 0.00 | 53 | 1012.9 |
| 20260504214503 | 85 | 105 | 0.9 | 3.5 | 0.00 | 0.00 | 0.00 | 54 | 1012.8 |
| 20260504214002 | 85 | 126 | 1.7 | 3.5 | 0.00 | 0.00 | 0.00 | 53 | 1012.9 |
| 20260504213502 | 85 | 99 | 0.9 | 6.1 | 0.00 | 0.00 | 0.00 | 54 | 1013.0 |
| 20260504213005 | 85 | 137 | 1.7 | 7.0 | 0.00 | 0.00 | 0.00 | 53 | 1013.0 |
| 20260504212502 | 85 | 146 | 0.9 | 7.0 | 0.00 | 0.00 | 0.00 | 56 | 1013.1 |
| 20260504212000 | 85 | 123 | 3.5 | 7.0 | 0.00 | 0.00 | 0.00 | 54 | 1012.9 |
| 20260504211503 | 84 | 142 | 0.9 | 6.1 | 0.00 | 0.00 | 0.00 | 56 | 1013.1 |
| 20260504211101 | 84 | 151 | 0.9 | 6.1 | 0.00 | 0.00 | 0.00 | 55 | 1013.1 |
| 20260504210601 | 84 | 140 | 0.9 | 6.1 | 0.00 | 0.00 | 0.00 | 56 | 1013.0 |
| 20260504210100 | 84 | 127 | 0.9 | 8.7 | 0.00 | 0.00 | 0.00 | 53 | 1013.1 |
| 20260504205601 | 85 | 111 | 3.5 | 8.7 | 0.00 | 0.00 | 0.00 | 52 | 1013.1 |
| 20260504205059 | 84 | 151 | 0.9 | 5.2 | 0.00 | 0.00 | 0.00 | 54 | 1013.1 |
| 20260504204603 | 84 | 137 | 0.9 | 8.7 | 0.00 | 0.00 | 0.00 | 54 | 1013.2 |
| 20260504204059 | 85 | 175 | 3.5 | 8.7 | 0.00 | 0.00 | 0.00 | 52 | 1013.1 |
| 20260504203603 | 84 | 140 | 1.7 | 5.2 | 0.00 | 0.00 | 0.00 | 53 | 1013.2 |
| 20260504203121 | 84 | 127 | 1.7 | 7.0 | 0.00 | 0.00 | 0.00 | 53 | 1013.3 |
| 20260504202559 | 85 | 150 | 2.6 | 7.0 | 0.00 | 0.00 | 0.00 | 51 | 1013.3 |
| 20260504202057 | 85 | 123 | 0.9 | 7.8 | 0.00 | 0.00 | 0.00 | 53 | 1013.3 |
| 20260504201556 | 86 | 81 | 3.5 | 7.8 | 0.00 | 0.00 | 0.00 | 50 | 1013.3 |
| 20260504201057 | 86 | 152 | 2.6 | 9.6 | 0.00 | 0.00 | 0.00 | 51 | 1013.4 |
| 20260504200556 | 86 | 56 | 1.7 | 9.6 | 0.00 | 0.00 | 0.00 | 52 | 1013.4 |
| 20260504200055 | 85 | 79 | 0.9 | 8.7 | 0.00 | 0.00 | 0.00 | 54 | 1013.5 |
| 20260504195559 | 85 | 158 | 3.5 | 8.7 | 0.00 | 0.00 | 0.00 | 52 | 1013.7 |
| 20260504195055 | 85 | 103 | 1.7 | 7.0 | 0.00 | 0.00 | 0.00 | 52 | 1013.6 |
| 20260504194604 | 86 | 86 | 1.7 | 8.7 | 0.00 | 0.00 | 0.00 | 50 | 1013.7 |
| 20260504194054 | 86 | 142 | 2.6 | 8.7 | 0.00 | 0.00 | 0.00 | 50 | 1013.7 |
| 20260504193554 | 85 | 131 | 1.7 | 7.0 | 0.00 | 0.00 | 0.00 | 51 | 1013.8 |
| 20260504193101 | 85 | 184 | 3.5 | 7.8 | 0.00 | 0.00 | 0.00 | 52 | 1013.9 |
| 20260504192552 | 85 | 150 | 0.9 | 7.8 | 0.00 | 0.00 | 0.00 | 52 | 1013.9 |
| 20260504192052 | 85 | 200 | 2.6 | 8.7 | 0.00 | 0.00 | 0.00 | 51 | 1013.9 |
| 20260504191551 | 85 | 109 | 2.6 | 8.7 | 0.00 | 0.00 | 0.00 | 53 | 1013.9 |
| 20260504191051 | 85 | 126 | 1.7 | 6.1 | 0.00 | 0.00 | 0.00 | 53 | 1014.1 |
| 20260504190552 | 84 | 129 | 1.7 | 9.6 | 0.00 | 0.00 | 0.00 | 54 | 1014.1 |
| 20260504190105 | 84 | 103 | 4.3 | 12.2 | 0.00 | 0.00 | 0.00 | 54 | 1014.3 |
| 20260504185548 | 85 | 128 | 5.2 | 12.2 | 0.00 | 0.00 | 0.00 | 49 | 1014.5 |
| 20260504185048 | 86 | 86 | 1.7 | 7.0 | 0.00 | 0.00 | 0.00 | 52 | 1014.6 |
| 20260504184553 | 85 | 69 | 1.7 | 7.0 | 0.00 | 0.00 | 0.00 | 52 | 1014.8 |
| 20260504184046 | 85 | 123 | 1.7 | 7.0 | 0.00 | 0.00 | 0.00 | 52 | 1014.7 |
| 20260504183549 | 85 | 46 | 0.9 | 7.8 | 0.00 | 0.00 | 0.00 | 57 | 1014.9 |
| 20260504183044 | 84 | 79 | 1.7 | 7.8 | 0.00 | 0.00 | 0.00 | 54 | 1014.9 |
| 20260504182548 | 84 | 171 | 1.7 | 7.0 | 0.00 | 0.00 | 0.00 | 55 | 1015.0 |
| 20260504182044 | 84 | 107 | 0.9 | 7.0 | 0.00 | 0.00 | 0.00 | 56 | 1015.2 |
| 20260504181544 | 84 | 146 | 0.9 | 3.5 | 0.00 | 0.00 | 0.00 | 58 | 1015.2 |
| 20260504181042 | 84 | 146 | 0.9 | 6.1 | 0.00 | 0.00 | 0.00 | 56 | 1015.3 |
| 20260504180544 | 84 | 211 | 1.7 | 7.8 | 0.00 | 0.00 | 0.00 | 54 | 1015.4 |
| 20260504180044 | 83 | 142 | 0.9 | 7.8 | 0.00 | 0.00 | 0.00 | 56 | 1015.4 |
| 20260504175541 | 83 | 146 | 1.7 | 7.8 | 0.00 | 0.00 | 0.00 | 56 | 1015.3 |
| 20260504175043 | 83 | 106 | 0.9 | 7.8 | 0.00 | 0.00 | 0.00 | 55 | 1015.4 |
| 20260504174541 | 83 | 67 | 2.6 | 7.8 | 0.00 | 0.00 | 0.00 | 55 | 1015.6 |
| 20260504174040 | 83 | 86 | 0.9 | 4.3 | 0.00 | 0.00 | 0.00 | 56 | 1015.7 |
| 20260504173541 | 83 | 207 | 0.9 | 6.1 | 0.00 | 0.00 | 0.00 | 57 | 1015.6 |
| 20260504173048 | 83 | 148 | 2.6 | 10.4 | 0.00 | 0.00 | 0.00 | 57 | 1015.7 |
| 20260504172539 | 83 | 130 | 2.6 | 7.0 | 0.00 | 0.00 | 0.00 | 56 | 1015.8 |
| 20260504172038 | 83 | 59 | 0.9 | 7.0 | 0.00 | 0.00 | 0.00 | 56 | 1015.8 |
| 20260504171538 | 83 | 232 | 0.9 | 7.0 | 0.00 | 0.00 | 0.00 | 56 | 1015.9 |
| 20260504171038 | 83 | 143 | 0.9 | 7.8 | 0.00 | 0.00 | 0.00 | 55 | 1016.0 |
| 20260504170537 | 83 | 57 | 1.7 | 7.8 | 0.00 | 0.00 | 0.00 | 56 | 1016.1 |
| 20260504151015 | 78 | 85 | 2.6 | 7.0 | 0.00 | 0.00 | 0.00 | 63 | 1016.7 |
| 20260504150511 | 78 | 215 | 0.9 | 6.1 | 0.00 | 0.00 | 0.00 | 66 | 1016.7 |
| 20260504141055 | 75 | 71 | 2.6 | 7.0 | 0.00 | 0.00 | 0.00 | 73 | 1016.4 |
| 20260504140555 | 75 | 70 | 0.9 | 6.1 | 0.00 | 0.00 | 0.00 | 75 | 1016.4 |
| 20260504140106 | 75 | 24 | 0.9 | 6.1 | 0.00 | 0.00 | 0.00 | 75 | 1016.4 |
| 20260504130536 | 69 | 149 | 1.7 | 10.4 | 0.00 | 0.00 | 0.00 | 82 | 1016.0 |